DL7MAP-13 Weather Reports


Display with metric or nautical units.
time (UTC)temp
F
wind
direction
speed
MPH
gust
MPH
rain 1hr
in
rain 24hr
in
rain mn
in
humidity
%
barometer
mb
20260505195807 57 0.0 0.0 0.00 0.00 0.00 82 1002.3
20260505194307 58 0.0 0.0 0.00 0.00 0.00 82 1002.4
20260505192807 58 0.0 0.0 0.00 0.00 0.00 81 1002.6
20260505191307 59 0.0 0.0 0.00 0.00 0.00 80 1002.4
20260505185807 59 0.0 0.0 0.00 0.00 0.00 80 1002.1
20260505184308 60 0.0 0.0 0.00 0.00 0.00 79 1002.2
20260505182807 61 0.0 0.0 0.00 0.00 0.00 78 1001.9
20260505181307 61 0.0 0.0 0.00 0.00 0.00 77 1002.5
20260505175807 62 0.0 0.0 0.00 0.00 0.00 76 1002.4
20260505174307 62 0.0 0.0 0.00 0.00 0.00 76 1002.3
20260505172807 63 0.0 0.0 0.00 0.00 0.00 75 1002.1
20260505171307 64 0.0 0.0 0.00 0.00 0.00 74 1002.1
20260505165807 64 0.0 0.0 0.00 0.00 0.00 73 1002.1
20260505164307 65 0.0 0.0 0.00 0.00 0.00 72 1002.6
20260505162807 64 0.0 0.0 0.00 0.00 0.00 72 1002.5
20260505161307 64 0.0 0.0 0.00 0.00 0.00 73 1002.3
20260505152807 65 0.0 0.0 0.00 0.00 0.00 71 1003.0
20260505151307 66 0.0 0.0 0.00 0.00 0.00 71 1002.8
20260505124307 67 0.0 0.0 0.00 0.00 0.00 68 1003.4
20260505122807 67 0.0 0.0 0.00 0.00 0.00 70 1003.5
20260505121307 67 0.0 0.0 0.00 0.00 0.00 69 1004.6
20260505114307 67 0.0 0.0 0.00 0.00 0.00 69 1004.5
20260505112807 67 0.0 0.0 0.00 0.00 0.00 69 1004.0
20260505111307 67 0.0 0.0 0.00 0.00 0.00 70 1004.1
20260505101307 66 0.0 0.0 0.00 0.00 0.00 68 1004.4
20260505095807 66 0.0 0.0 0.00 0.00 0.00 70 1003.9
20260505094307 65 0.0 0.0 0.00 0.00 0.00 71 1004.0
20260505092807 65 0.0 0.0 0.00 0.00 0.00 72 1005.4
20260505091307 63 0.0 0.0 0.00 0.00 0.00 74 1004.4
20260505085807 63 0.0 0.0 0.00 0.00 0.00 75 1004.2
20260505084307 62 0.0 0.0 0.00 0.00 0.00 76 1005.6
20260505082807 61 0.0 0.0 0.00 0.00 0.00 78 1005.0
20260505081307 60 0.0 0.0 0.00 0.00 0.00 78 1004.8
20260505075807 59 0.0 0.0 0.00 0.00 0.00 79 1004.3
20260505074306 58 0.0 0.0 0.00 0.00 0.00 80 1004.8
20260505072807 58 0.0 0.0 0.00 0.00 0.00 79 1004.6
20260505071307 58 0.0 0.0 0.00 0.00 0.00 79 1005.1
20260505065807 58 0.0 0.0 0.00 0.00 0.00 80 1004.6
20260505064307 58 0.0 0.0 0.00 0.00 0.00 81 1004.2
20260505062807 58 0.0 0.0 0.00 0.00 0.00 82 1005.2
20260505061307 56 0.0 0.0 0.00 0.00 0.00 82 1005.3
20260505055807 56 0.0 0.0 0.00 0.00 0.00 83 1005.1
20260505054307 56 0.0 0.0 0.00 0.00 0.00 83 1005.1
20260505052807 56 0.0 0.0 0.00 0.00 0.00 83 1005.1
20260505051307 56 0.0 0.0 0.00 0.00 0.00 83 1005.0
20260505041307 56 0.0 0.0 0.00 0.00 0.00 81 1005.0
20260505035807 56 0.0 0.0 0.00 0.00 0.00 81 1005.1
20260505034307 56 0.0 0.0 0.00 0.00 0.00 81 1005.1
20260505032807 56 0.0 0.0 0.00 0.00 0.00 81 1005.2
20260505031307 56 0.0 0.0 0.00 0.00 0.00 81 1005.3
20260505025807 56 0.0 0.0 0.00 0.00 0.00 81 1004.9
20260505024307 56 0.0 0.0 0.00 0.00 0.00 81 1005.1
20260505022807 56 0.0 0.0 0.00 0.00 0.00 81 1005.6
20260505021307 56 0.0 0.0 0.00 0.00 0.00 81 1005.6
20260505015807 55 0.0 0.0 0.00 0.00 0.00 81 1005.8
20260505014307 56 0.0 0.0 0.00 0.00 0.00 81 1005.5
20260505012807 56 0.0 0.0 0.00 0.00 0.00 80 1005.3
20260505011307 56 0.0 0.0 0.00 0.00 0.00 80 1005.5
20260505005807 56 0.0 0.0 0.00 0.00 0.00 81 1005.6
20260505004307 56 0.0 0.0 0.00 0.00 0.00 81 1005.8
20260505002807 56 0.0 0.0 0.00 0.00 0.00 81 1006.1
20260505001307 56 0.0 0.0 0.00 0.00 0.00 81 1006.6
20260504235807 56 0.0 0.0 0.00 0.00 0.00 80 1006.0
20260504234307 56 0.0 0.0 0.00 0.00 0.00 80 1006.3
20260504232806 56 0.0 0.0 0.00 0.00 0.00 80 1006.6
20260504231307 57 0.0 0.0 0.00 0.00 0.00 79 1006.6
20260504225807 58 0.0 0.0 0.00 0.00 0.00 78 1006.7
20260504224307 58 0.0 0.0 0.00 0.00 0.00 78 1006.7
20260504222807 58 0.0 0.0 0.00 0.00 0.00 77 1006.8
20260504221307 59 0.0 0.0 0.00 0.00 0.00 76 1006.7
20260504215807 60 0.0 0.0 0.00 0.00 0.00 75 1006.6
20260504214307 61 0.0 0.0 0.00 0.00 0.00 74 1006.8
20260504212807 61 0.0 0.0 0.00 0.00 0.00 73 1006.9
20260504211307 61 0.0 0.0 0.00 0.00 0.00 72 1006.7
20260504205807 61 0.0 0.0 0.00 0.00 0.00 73 1006.9
20260504204307 61 0.0 0.0 0.00 0.00 0.00 73 1006.8
20260504202807 62 0.0 0.0 0.00 0.00 0.00 72 1006.8
20260504201307 62 0.0 0.0 0.00 0.00 0.00 71 1006.8